www.pogodaiklimat.ru
ПОГОДА в Тетерборо
Время
и дата
06:51 24.10
07:32 24.10
07:40 24.10
07:51 24.10
08:51 24.10
09:51 24.10
10:51 24.10
11:51 24.10
12:31 24.10
12:51 24.10
13:29 24.10
13:51 24.10
14:51 24.10
15:51 24.10
16:51 24.10
17:51 24.10
18:51 24.10
19:51 24.10
20:51 24.10
21:51 24.10
22:51 24.10
23:51 24.10
00:51 25.10
01:51 25.10
02:51 25.10
03:51 25.10
04:51 25.10
05:51 25.10
06:51 25.10
07:51 25.10
08:51 25.10
09:51 25.10
10:51 25.10
11:51 25.10
12:51 25.10
13:51 25.10
14:51 25.10
15:51 25.10
16:51 25.10
17:51 25.10
18:51 25.10
19:33 25.10
19:51 25.10
20:51 25.10
21:51 25.10
22:51 25.10
23:51 25.10
00:51 26.10
Ветер
(напр.,м/с)
Видим. Явления Облачность Т
(С)
Тd
(С)
f
(%)
Тe
(С)
Тes
(С)
Комфортность P
(гПа)
Po
(гПа)
Тmin
(С)
Tmax
(С)
R
(мм)
R24
(мм)
S
(см)
Ю 2 16 км 10/10 450 м +17.2 +15.6 90 +17 +17 1013.1 1012.9 +16.7 +17.2
ЮЗ 2 16 км слабая морось 8/8 330 м +17.2 +15.6 90 +17 +17 1012.9
ЮЗ 3 16 км слабая морось 8/8 270 м +17.2 +15.0 87 +16 +16 1013.2
ЮЗ 2 16 км слабая морось 8/8 270 м +17.2 +15.6 90 +17 +17 1013.5 1013.2
ЮЗ 2 6 км слабая морось, дымка 10/10 270 м +17.2 +15.6 90 +17 +17 1013.4 1013.2
ЮЗ 2 8 км слабая морось, дымка 10/10 270 м +17.8 +15.6 87 +18 +18 1013.1 1012.9
ЮЗ 1 8 км дымка 10/10 300 м +17.8 +15.6 87 +18 +18 1012.6 1012.2
ЮЗ 1 16 км 10/10 360 м +19.4 +16.1 81 +22 +22 комфорт 1011.7 1011.5
З 1 16 км 10/10 600 м +19.4 +16.1 81 +22 +22 комфорт 1011.2
С 2 16 км 10/10 600 м +20.0 +15.0 73 +22 +22 комфорт 1011.7 1011.5 +17.2 +20.0
З 2 16 км 5/5 780 м +21.1 +13.9 63 +24 +26 комфорт 1011.2
С 2 16 км 5/5 780 м +21.1 +13.3 61 +23 +26 комфорт 1011.6 1011.2
СЗ 2 16 км 8/8 1140 м +20.0 +11.1 57 +22 +22 комфорт 1011.9 1011.5
СЗ 2 16 км 10/10 1290 м +18.3 +9.4 56 +18 +18 1012.7 1012.5
СЗ 3 16 км 5/5 1260 м +16.1 +7.2 56 +15 +15 1013.4 1013.2
СЗ 2 16 км ясно +14.4 +6.1 57 +13 +13 1014.4 1014.2
СЗ 3
{4}
16 км ясно +13.3 +5.0 57 +11 +11 1015.3 1014.9 +13.3 +21.1
СЗ 2
{4}
16 км ясно +11.7 +3.9 59 +9 +9 1016.2 1015.9
СЗ 2 16 км ясно +10.6 +2.8 58 +8 +8 1017.3 1016.9
СЗ 2 16 км ясно +9.4 +2.2 61 +6 +6 1018.4 1018.3
С 2 16 км ясно +8.3 +2.2 65 +5 +5 1018.9 1018.6
С 1 16 км ясно +7.8 +1.7 65 +5 +5 1019.0 1018.6
СЗ 1 16 км ясно +7.2 +1.7 68 +5 +5 1019.3 1018.9 +7.2 +13.3
С 1 16 км ясно +7.2 +1.7 68 +5 +5 1020.2 1020.0
С 1 16 км ясно +6.7 +1.1 67 +5 +5 1020.5 1020.3
штиль 0 16 км ясно +6.1 +1.7 73 +5 +5 1021.1 1020.6
С 1 16 км ясно +5.6 +1.7 76 +3 +3 1021.7 1021.3
С 1 16 км ясно +6.1 +1.1 70 +3 +3 1022.5 1022.3
С 1 16 км ясно +6.1 +1.1 70 +4 +4 1023.3 1023.0 +5.6 +7.2
СВ 1 16 км ясно +7.8 +0.6 60 +5 +5 1024.3 1024.0
СВ 2 16 км ясно +8.3 +0.6 58 +6 +6 1024.6 1024.4
СВ 2 16 км ясно +9.4 +0.6 54 +7 +8 1024.3 1024.0
СВ 1 16 км ясно +9.4 +0.6 54 +7 +12 1024.2 1024.0
СВ 1 16 км ясно +10.0 +0.6 52 +8 +14 1024.0 1023.7
СВ 1 16 км ясно +10.6 +1.1 52 +10 +17 1023.8 1023.7 +6.1 +10.6
нст 1 16 км 8/0 3300 м
[Ac]
+11.1 +1.1 50 +10 +13 1023.7 1023.3
СВ 1 16 км 10/0 3300 м
[Ac]
+11.1 +1.1 50 +10 +12 1024.0 1023.7
В 1 16 км 10/0 2850 м
[Ac]
+10.6 +1.7 54 +9 +10 1023.9 1023.7
В 2 16 км 10/0 2250 м
[Ac]
+10.6 +1.7 54 +8 +9 1023.9 1023.7
СВ 1 16 км слабый дождь 10/0 2100 м
[Ac]
+10.6 +3.3 61 +10 +10 1024.3 1024.0
С 1 16 км 10/10 930 м +10.0 +3.9 66 +9 +9 1024.8 1024.4 +10.0 +11.1
С 1 16 км слабый дождь 10/10 870 м +10.0 +3.9 66 +9 +9 1024.4
С 1 11 км слабый дождь 10/10 870 м +8.9 +5.0 77 +7 +7 1024.6 1024.4
С 1 6 км слабый дождь, дымка 10/10 720 м +8.3 +6.1 86 +6 +6 1024.4 1024.0
СВ 1 8 км слабый дождь, дымка 10/10 720 м +8.3 +6.7 90 +6 +6 1024.3 1024.0 0.8
С 1 8 км слабый дождь, дымка 10/10 690 м +8.3 +6.7 90 +6 +6 1024.3 1024.0
С 1 16 км слабый дождь, дымка 10/10 660 м +8.9 +7.2 89 +6 +6 1023.6 1023.3
С 1 10 км дымка 10/10 570 м +8.9 +7.2 89 +6 +6 1023.5 1023.3 +7.8 +10.0 0.8
Местоположение метеостанции Teterboro Airport: широта 40.8589 долгота -74.0567 высота над уровнем моря 2 м.
В архиве по умолчанию представлена погода в Тетерборо за последние 1-2 суток. Обновление информации о фактической погоде в базе происходит ежечасно! Архивные данные за месяц целиком и за предыдущие месяцы Вы можете получить, выбрав интересующий диапазон дат из раскрывающегося списка и нажав кнопку "Ввод!".
Внимание! Архив погоды МЕТАР в базе сайта по станциям, не включенным в климатический монитор, хранится не более 60 дней. Нет смысла пытаться выбрать более раннюю дату.
*Определитесь, кто Вы:
Внимание! Время в таблицах - местное (без учета летнего времени). Для получения всемирного времени необходимо вычесть поправку, которая равна -5 ч.
Смотрите также архив погоды в соседних городах и на ближайших метеорологических станциях:
Партнеры нашего сайта:      
Пояснения к столбцам:
  • Ветер - указаны скорость ветра в м/с - средняя за 10 мин, порывы в срок и между сроками (в фигурных скобках) и направление, откуда дует ветер: С - северный,
  • СВ - северо-восточный, В - восточный, ЮВ - юго-восточный, Ю - южный, ЮЗ - юго-западный, З - западный, СЗ - северо-западный.
  • Видимость - горизонтальная дальность видимости в метрах или километрах. При видимости от 1 до 10 км при отсутствии осадков обычно наблюдается дымка, при ухудшении видимости до 1 км и менее - туман. В сухую погоду видимость может ухудшаться дымом, пылью или мглою.
  • Явления - указаны атмосферные явления, наблюдавшиеся в срок или в последний час перед сроком; фигурными скобками обозначены явления, наблюдавшиеся между сроками (за 1-3 часа до срока); квадратными скобками обозначены град или гололедные отложения с указанием их диаметра в мм.
  • Облачность - указаны через наклонную черту общая и нижняя облачность в баллах и высота нижней границы облаков в метрах; квадратными скобками обозначены формы облаков: Ci - перистые, Cs - перисто-слоистые, Cc - перисто-кучевые, Ac - высококучевые, As - высокослоистые, Sc - слоисто-кучевые, Ns - слоисто-дождевые, Cu - кучевые, Cb - кучево-дождевые. Подробнее классификацию облаков см. в Атласе облаков (PDF).
  • T - Температура воздуха - температура, измеренная на высоте 2 м над землей.
  • Td - Температура точки росы - температура, при понижении до которой содержащийся в воздухе водяной пар достигнет насыщения.
  • f - Относительная влажность воздуха - влажноcть воздуха, измеренная на высоте 2 м над землей.
  • Te - Эффективная температура - температура, которую ощущает одетый по сезону человек в тени. Характеристика душности погоды. При расчете учитывается влияние влажности воздуха и скорости ветра на теплоощущения человека.
  • Tes - Эффективная температура на солнце - температура, которую ощущает человек, с поправкой на солнечный нагрев. Характеристика знойности погоды. Зависит от высоты солнца над горизонтом, облачности и скорости ветра. Ночью, в пасмурную погоду, а также при ветре 12 м/с и более поправка равна нулю.
  • P - Атмосферное давление - приведенное к уровню моря атмосферное давление.
  • Po - Атмосферное давление - измеренное на уровне метеостанции атмосферное давление.
  • Tmin - Минимальная температура - минимум температуры воздуха на высоте 2 м над землей.
  • Tmax - Максимальная температура - максимум температуры воздуха на высоте 2 м над землей.
  • R - Количество осадков - Количество выпавших осадков за период времени, мм. При наведении курсора мыши на число - период времени, за который выпало указанное количество осадков.
  • R24 - Количество осадков - Количество выпавших осадков за 24 часа, мм.
  • S - Снежный покров - Высота снежного покрова, см. При наведении курсора мыши на число - состояние снежного покрова и степень покрытия местности в баллах.